Sheboygan, WI

7:12 PM CDT on April 27, 2017 (GMT -0500)
Sheboygan County Memorial

Weather History for KSBM - April, 2013

Change the Weather History Date:

Tuesday, April 30, 2013

  Actual Average Record
Temperature  
Mean Temperature 60 °F -  
Max Temperature 71 °F 56 °F 81 °F (1957)
Min Temperature 50 °F 40 °F 28 °F (2008)
Degree Days  
Heating Degree Days 4    
Growing Degree Days 10 (Base 50)    
Moisture  
Dew Point 52 °F    
Average Humidity 79    
Maximum Humidity 96    
Minimum Humidity 55    
Precipitation  
Precipitation 0.07 in - - ()
Sea Level Pressure  
Sea Level Pressure 29.76 in    
Wind  
Wind Speed 9 mph (SSE)    
Max Wind Speed 16 mph    
Max Gust Speed 23 mph    
Visibility 9 miles    
Events Rain , Thunderstorm    
Averages and records for this station are not official NWS values.
T = Trace of Precipitation, MM = Missing Value Source: NWS Daily Summary

Daily Weather History Graph

Daily Weather History Graph

Search for Another Location

Airport or City:

Trip Planner

Search our weather history database for the weather conditions in past years. The results will help you decide how hot, cold, wet, or windy it might be!

Date:

Astronomy

Apr. 30, 2013 Rise Set
Actual Time 5:44 AM CDT 7:53 PM CDT
Civil Twilight 5:13 AM CDT 8:24 PM CDT
Nautical Twilight 4:34 AM CDT 9:03 PM CDT
Astronomical Twilight 3:51 AM CDT 9:46 PM CDT
Moon 12:18 AM CDT (4/30) 10:11 AM CDT (4/30)
Length of Visible Light 15h 11m
Length of Day
14h 08m
Waning Gibbous, 70% of the Moon is Illuminated
Apr 30
Waning Gibbous
May 2
Last Quarter
May 9
New
May 17
First Quarter
May 24
Full

Hourly Weather History & Observations

Time (CDT) Temp. Dew Point Humidity Pressure Visibility Wind Dir Wind Speed Gust Speed Precip Events Conditions
12:53 AM 52.0 °F 48.0 °F 86% 29.77 in 10.0 mi South 9.2 mph - N/A   Clear
1:53 AM 52.0 °F 48.0 °F 86% 29.75 in 10.0 mi SSE 9.2 mph - N/A   Scattered Clouds
2:53 AM 51.1 °F 48.0 °F 89% 29.73 in 9.0 mi SSE 8.1 mph - N/A   Clear
3:53 AM 51.1 °F 48.0 °F 89% 29.72 in 9.0 mi SSE 9.2 mph - N/A   Clear
4:53 AM 50.0 °F 46.9 °F 89% 29.73 in 8.0 mi South 9.2 mph - N/A   Clear
5:25 AM 50.0 °F 48.2 °F 94% 29.74 in 7.0 mi South 8.1 mph - N/A Thunderstorm Mostly Cloudy
5:50 AM 51.8 °F 50.0 °F 94% 29.74 in 6.0 mi South 6.9 mph - 0.06 in Rain Light Rain
5:53 AM 51.1 °F 50.0 °F 96% 29.74 in 6.0 mi South 6.9 mph - 0.06 in Rain Light Rain
6:53 AM 51.1 °F 50.0 °F 96% 29.73 in 4.0 mi SSE 3.5 mph - N/A   Clear
7:53 AM 53.1 °F 51.1 °F 93% 29.71 in 5.0 mi SE 11.5 mph - 0.00 in   Mostly Cloudy
8:53 AM 53.1 °F 51.1 °F 93% 29.75 in 5.0 mi SSE 8.1 mph - 0.00 in   Partly Cloudy
9:53 AM 55.9 °F 54.0 °F 93% 29.73 in 8.0 mi SSE 8.1 mph - 0.01 in   Partly Cloudy
10:53 AM 57.9 °F 55.0 °F 90% 29.73 in 10.0 mi SSE 10.4 mph - N/A   Clear
11:53 AM 59.0 °F 54.0 °F 83% 29.74 in 9.0 mi SSE 11.5 mph - N/A   Clear
12:53 PM 64.0 °F 55.9 °F 75% 29.73 in 10.0 mi SSE 12.7 mph 19.6 mph N/A   Clear
1:53 PM 63.0 °F 53.1 °F 70% 29.73 in 10.0 mi SSE 16.1 mph 23.0 mph N/A   Clear
2:53 PM 63.0 °F 53.1 °F 70% 29.73 in 10.0 mi SSE 13.8 mph 20.7 mph N/A   Clear
3:53 PM 68.0 °F 54.0 °F 61% 29.73 in 10.0 mi SSE 11.5 mph - N/A   Clear
4:53 PM 71.1 °F 54.0 °F 55% 29.74 in 10.0 mi SSE 10.4 mph - N/A   Clear
5:53 PM 68.0 °F 53.1 °F 59% 29.76 in 10.0 mi SE 6.9 mph - N/A   Clear
6:53 PM 68.0 °F 53.1 °F 59% 29.78 in 10.0 mi SSE 8.1 mph - N/A   Clear
7:53 PM 66.0 °F 52.0 °F 60% 29.80 in 10.0 mi SSE 8.1 mph - N/A   Clear
8:53 PM 64.9 °F 52.0 °F 63% 29.83 in 10.0 mi South 6.9 mph - N/A   Clear
9:53 PM 64.0 °F 50.0 °F 60% 29.84 in 10.0 mi South 9.2 mph - N/A   Clear
10:53 PM 63.0 °F 53.1 °F 70% 29.86 in 10.0 mi South 9.2 mph - N/A   Clear
11:53 PM 63.0 °F 54.0 °F 72% 29.88 in 10.0 mi South 11.5 mph - N/A   Clear